Theta_e
321 318 318 317 316 319 320 320 321 320 320 322 319 320 337 337 335 337 337 334 329 330 331 334 337 329 327 326 326 326 327 327 330 331 332 333 333 334 334 334 333 330 327 323
319 319 318 318 318 318 319 321 319 319 320 319 320 320 324 332 334 335 335 333 330 327 328 329 328 327 326 327 327 328 329 330 331 332 334 335 336 336 334 331 326 323 318 315
319 321 321 321 322 322 322 322 321 320 322 320 320 320 321 321 326 329 330 332 330 327 327 326 326 326 327 327 328 330 330 331 332 334 336 335 335 331 324 321 318 316 312 308
319 320 322 322 322 322 322 320 322 324 321 322 319 321 320 321 320 321 327 331 332 330 326 326 327 327 328 328 330 331 332 334 334 334 333 333 327 323 319 316 313 309 308 308
321 322 322 322 322 321 322 320 323 323 320 320 320 319 319 318 320 319 321 325 325 327 327 326 328 328 330 330 332 334 334 334 333 332 331 328 319 316 312 309 308 308 309 310
319 321 321 320 321 322 322 321 318 317 317 320 320 319 319 318 320 320 331 334 325 324 327 328 330 330 332 332 332 332 332 333 331 329 326 319 314 310 309 308 308 309 310 309
319 319 320 322 322 320 319 318 320 321 319 321 318 321 321 322 322 326 333 334 333 332 332 332 332 332 331 327 327 330 330 329 328 324 317 311 309 308 308 308 308 308 307 306
320 320 320 321 320 321 320 318 321 323 321 320 320 325 326 325 327 331 332 332 332 331 330 329 328 326 325 330 332 323 326 327 322 315 309 308 307 308 308 308 307 306 306 306
319 321 322 323 323 320 321 320 318 319 319 321 319 322 325 325 325 329 328 327 324 322 323 322 320 322 324 321 325 322 321 317 311 308 307 307 308 308 307 306 306 306 306 306
319 321 321 321 321 319 319 318 321 318 323 323 321 325 328 328 327 326 326 324 321 320 320 320 319 320 320 318 317 320 313 309 307 307 307 307 307 306 305 305 306 306 306 306
317 319 321 323 323 320 319 319 317 317 320 321 321 321 325 326 326 326 325 322 321 320 318 319 319 319 319 319 315 313 308 307 307 307 307 306 305 305 304 304 305 304 305 305
318 317 320 321 323 322 323 325 320 320 325 322 323 324 326 324 326 326 324 321 321 321 320 320 321 320 323 322 317 308 306 306 307 306 306 305 304 304 304 304 304 303 304 304
322 320 321 322 321 322 325 326 322 320 320 325 324 323 323 325 327 327 323 321 321 321 319 318 319 322 323 323 318 306 306 306 306 305 304 304 304 303 303 301 302 301 303 304
324 321 320 323 322 324 326 326 325 322 323 323 325 324 327 324 328 326 322 325 323 320 318 319 321 321 323 316 307 305 305 304 304 304 303 303 302 301 301 302 302 300 301 303
317 322 324 325 326 326 326 327 326 325 322 324 323 324 322 325 324 326 323 321 319 318 318 319 321 318 317 306 305 305 304 304 303 302 301 301 302 301 300 298 297 296 297 302
316 323 324 327 326 325 326 326 324 325 324 323 323 323 319 323 326 328 324 321 318 318 318 318 317 319 309 305 305 304 303 302 301 302 302 302 302 301 298 299 296 297 300 302
322 322 321 325 325 322 319 322 322 322 323 323 324 322 323 324 326 327 324 322 321 318 318 317 315 310 305 305 304 302 300 298 298 301 302 303 303 302 299 300 298 297 299 301
321 322 320 325 322 326 319 321 321 323 324 322 325 326 323 323 322 325 327 323 320 320 320 319 316 306 305 303 303 301 299 299 300 302 303 303 302 301 299 299 300 298 298 301
319 319 322 324 323 322 323 322 322 323 325 323 326 325 323 321 323 320 324 323 322 320 317 315 308 306 304 303 302 299 300 301 302 302 302 302 302 300 300 299 300 300 299 299
319 319 322 321 324 324 320 324 324 320 322 325 325 325 322 323 324 317 318 319 318 316 315 306 306 305 304 304 302 299 299 302 302 302 302 300 300 299 299 299 299 300 300 299
319 320 322 320 323 321 319 324 323 324 320 326 323 326 324 322 322 320 319 318 317 312 308 307 306 305 304 303 301 298 300 301 301 301 302 300 299 298 298 299 299 300 300 299
317 320 321 320 323 326 324 325 323 321 326 326 325 324 325 324 320 317 316 314 313 314 307 306 305 304 302 301 300 299 300 301 301 301 301 300 300 298 298 298 299 299 300 299
317 318 320 320 320 319 325 325 326 326 326 325 324 324 325 322 317 315 314 315 311 307 306 304 303 303 304 304 302 300 299 300 301 301 301 300 300 299 298 298 299 300 300 300
321 320 320 321 321 324 326 327 326 325 322 323 323 324 324 322 317 316 316 312 307 307 304 303 304 305 305 304 303 299 299 299 300 301 301 299 299 298 297 298 299 300 301 300
318 320 319 320 322 324 326 326 325 324 323 323 323 323 323 321 318 318 314 310 308 307 306 304 305 306 305 305 304 300 301 300 300 300 300 300 298 297 297 298 298 299 301 300
317 319 319 320 320 321 324 325 324 323 323 322 322 321 320 319 319 315 312 310 308 308 307 306 306 307 305 305 302 302 301 300 300 300 299 298 298 297 297 298 298 298 299 300
Wind_Speed
2 3 5 7 6 2 1 1 3 7 5 2 8 8 17 30 22 24 26 33 41 43 42 44 48 44 42 39 36 29 24 21 20 19 18 18 18 19 21 20 22 25 27 29
4 5 9 3 4 4 3 2 8 8 5 6 6 10 7 18 29 35 35 34 40 41 44 49 48 44 42 41 34 30 26 24 23 22 21 21 20 20 18 20 23 26 28 32
6 6 5 4 3 2 4 3 4 7 5 2 2 7 2 2 7 14 22 31 31 44 48 47 43 43 40 36 33 30 27 26 25 22 20 17 17 17 18 21 25 28 32 35
5 7 6 1 5 6 6 8 7 3 3 1 3 4 5 2 6 8 31 40 43 41 43 35 43 41 37 32 31 30 28 25 21 14 12 14 13 16 20 24 28 32 34 33
7 1 2 1 6 5 10 7 6 3 4 2 5 4 7 4 6 5 4 12 28 35 31 34 39 37 32 32 30 27 24 19 13 9 10 15 17 20 24 28 30 30 28 27
7 2 1 5 5 3 4 4 7 5 3 3 2 4 6 5 6 7 9 12 4 13 25 35 33 32 32 30 27 21 16 13 7 8 15 17 20 24 27 28 26 25 25 25
6 6 3 4 5 3 5 6 3 3 4 4 3 4 1 9 9 6 6 12 15 21 29 31 35 35 31 24 16 13 6 3 8 15 16 19 22 24 22 21 22 24 26 27
6 7 5 4 7 5 4 8 6 5 3 4 3 1 4 6 12 19 18 17 20 25 27 31 31 28 22 15 8 1 1 9 12 14 18 20 20 18 18 19 20 21 23 27
6 6 3 4 3 7 3 3 4 7 3 2 2 4 4 8 8 16 18 21 22 23 26 28 26 24 20 8 10 2 8 10 12 16 18 17 16 16 17 18 18 18 22 25
7 3 5 5 1 3 6 6 3 3 4 4 4 2 3 6 6 3 14 22 21 21 24 25 22 18 14 6 6 6 10 13 15 16 15 14 13 15 15 15 17 18 20 22
5 5 5 2 1 2 2 2 7 6 4 5 1 4 5 5 4 1 13 22 24 23 22 22 17 12 12 7 10 12 14 14 12 13 12 11 13 14 14 15 16 17 18 20
6 6 4 6 5 3 4 4 4 5 3 2 4 5 6 7 5 19 20 24 24 25 25 23 18 10 7 4 11 14 12 10 12 13 12 11 12 13 14 16 17 17 16 17
8 1 1 6 6 4 7 4 4 6 4 5 5 5 4 7 3 16 27 25 25 25 25 22 17 13 5 3 12 10 7 8 9 11 10 10 12 15 17 19 17 18 15 16
6 4 6 9 6 4 5 3 2 4 4 4 5 3 6 8 8 14 24 30 30 28 26 18 13 7 3 6 4 3 5 5 7 9 9 11 15 17 18 18 18 18 15 15
4 4 4 4 3 4 2 3 3 5 4 6 6 8 6 13 13 25 26 26 27 27 24 20 10 6 3 2 1 2 3 2 5 8 10 14 15 15 17 20 21 18 15 12
3 2 3 3 3 3 3 3 5 7 2 5 2 5 4 8 10 20 25 26 26 28 23 14 11 5 2 1 1 2 1 2 6 8 10 11 14 15 20 25 23 16 12 12
4 5 3 2 2 2 3 6 6 3 1 2 5 8 6 4 9 20 26 26 26 24 19 14 7 4 2 3 4 4 2 6 6 6 8 10 11 14 20 25 26 17 15 14
5 4 3 3 2 1 6 3 3 9 2 6 4 4 4 7 8 10 20 26 26 23 19 15 10 6 5 5 4 3 6 8 8 5 6 10 10 12 16 22 28 24 14 13
5 5 3 4 3 4 5 3 5 5 1 2 2 1 5 15 9 7 14 23 24 23 18 12 9 7 7 5 4 6 5 6 6 7 9 8 9 12 15 19 24 27 21 17
6 5 5 3 5 7 7 3 6 5 3 4 4 8 11 7 3 3 14 20 21 18 14 12 11 8 6 4 5 4 4 5 5 8 9 10 9 10 13 16 19 23 26 24
3 2 5 3 3 5 5 6 7 5 7 10 7 13 17 5 7 9 20 19 17 18 15 11 6 7 6 5 5 6 4 5 6 6 7 8 10 12 11 14 15 18 23 26
5 5 3 3 2 6 10 5 8 6 10 9 8 9 20 15 10 21 24 24 20 15 14 12 10 8 5 5 6 6 6 6 5 5 8 9 10 12 11 13 13 14 18 23
2 5 4 7 6 4 8 3 7 14 12 7 6 7 13 17 22 25 25 18 14 14 13 12 10 8 5 5 8 7 8 6 4 5 8 9 10 10 11 12 13 13 15 19
1 2 3 2 2 2 12 16 15 10 8 7 4 7 13 17 22 23 20 17 16 12 12 11 8 4 4 4 6 7 8 9 4 5 8 10 9 11 12 13 13 14 12 16
2 2 1 1 2 6 12 14 14 11 9 9 9 9 12 15 21 20 20 20 17 14 12 10 5 2 1 4 6 3 6 9 5 6 9 9 10 11 13 14 12 14 10 13
2 3 3 4 3 2 8 13 11 11 11 9 11 13 13 14 18 21 20 17 16 15 13 10 6 4 3 5 5 1 3 6 6 7 8 11 10 11 11 12 13 14 12 12
Wind_Direction
305 83 227 229 199 163 109 185 275 269 258 246 255 260 191 196 200 212 209 204 203 203 202 198 198 202 207 207 206 202 206 211 214 217 221 232 245 255 263 272 284 289 293 297
17 246 235 219 186 217 217 307 296 291 273 160 294 279 206 185 204 206 206 212 211 206 202 201 201 204 208 207 200 202 204 204 211 220 225 231 245 261 275 288 291 294 295 298
176 231 108 175 261 236 251 199 242 234 342 132 17 331 61 196 241 232 233 228 223 214 210 206 205 207 207 205 198 200 198 203 209 219 227 239 260 284 292 291 295 299 304 308
235 273 237 269 264 165 266 213 212 159 96 215 49 274 307 110 208 218 226 229 227 226 221 207 204 205 206 199 196 196 194 198 206 215 240 263 295 296 300 305 306 309 310 311
238 200 75 282 241 159 227 158 178 125 108 80 348 73 273 349 326 295 323 287 251 242 218 202 200 202 195 192 187 185 187 192 204 238 277 313 312 314 315 314 310 309 318 325
233 238 228 225 284 247 132 91 49 55 93 53 243 120 285 327 297 312 357 11 29 191 190 184 183 182 175 175 174 174 184 198 230 307 322 313 315 317 312 311 320 330 333 336
322 270 247 217 284 9 73 62 359 351 11 211 159 96 270 322 330 10 31 62 105 139 148 150 154 157 157 148 142 150 169 247 325 326 317 322 319 315 325 335 340 346 351 354
191 312 166 172 182 205 198 151 152 210 188 241 284 275 324 318 48 65 69 76 88 109 126 140 142 130 119 126 159 287 39 329 328 325 322 317 326 340 345 348 356 0 1 2
157 261 266 219 191 143 196 172 184 102 35 75 264 116 263 355 33 75 69 76 77 94 114 124 126 129 135 132 138 2 347 339 331 324 328 343 351 354 1 7 6 5 9 2
211 303 217 278 129 122 165 155 90 22 147 216 283 100 220 330 332 49 98 98 101 116 124 127 127 128 124 83 41 17 341 336 336 346 350 352 0 6 6 9 10 13 12 4
132 132 270 35 359 177 6 58 50 107 107 160 189 265 216 231 231 96 110 120 133 137 136 135 129 115 76 37 353 350 338 337 345 353 1 6 5 8 6 5 7 10 14 7
186 157 231 227 336 13 104 112 127 116 201 108 138 269 176 219 240 150 139 142 156 158 155 156 154 142 139 319 323 327 329 338 8 16 11 5 10 5 357 355 352 351 354 357
175 112 74 6 344 356 75 50 91 87 74 187 134 256 174 199 250 156 144 161 172 175 170 165 159 153 205 314 291 306 341 3 17 25 19 11 5 359 355 350 346 344 344 346
100 111 157 190 193 152 93 118 176 110 113 179 215 202 194 197 184 168 169 183 184 184 180 171 175 185 239 249 304 354 10 22 29 30 21 11 9 357 352 350 344 342 338 339
90 107 100 51 52 67 87 102 172 220 189 161 243 193 229 203 190 190 181 184 182 183 181 186 192 179 224 331 26 31 57 17 25 28 21 14 1 8 3 354 343 331 327 331
20 135 77 95 72 47 234 179 234 240 234 258 220 277 206 215 164 178 187 184 178 185 189 184 175 181 235 244 146 121 111 348 20 21 20 19 18 14 8 4 359 356 351 339
82 122 89 105 22 217 340 214 225 224 197 245 187 235 160 176 162 180 189 185 187 187 184 180 180 182 157 167 150 125 29 2 11 28 24 5 2 9 12 10 9 1 351 350
117 89 83 156 58 170 240 292 202 125 39 343 12 320 188 139 140 195 210 190 186 191 187 195 193 182 147 145 137 50 17 28 37 26 12 0 359 11 11 11 13 12 3 1
116 114 104 141 183 297 309 212 157 177 199 232 198 142 99 130 111 78 180 194 195 188 184 172 163 166 151 138 77 31 43 35 28 17 6 354 6 13 11 10 14 19 15 357
59 70 123 144 165 207 229 225 138 102 299 223 202 182 168 157 153 213 178 188 178 166 164 154 141 157 149 105 43 16 10 7 2 8 359 7 10 12 9 6 8 13 14 9
89 38 168 150 207 287 244 195 146 123 239 182 196 213 187 193 218 172 173 169 165 155 155 159 161 175 141 78 25 2 359 355 8 349 345 351 10 13 10 1 360 5 10 14
162 146 196 95 121 280 196 119 161 196 150 174 201 210 202 212 165 160 164 164 163 159 155 160 165 155 107 60 25 1 3 358 350 329 338 345 1 10 9 0 354 356 3 14
246 179 188 175 211 248 177 189 164 153 157 178 205 217 212 177 164 164 161 159 155 147 151 153 159 143 104 48 20 11 4 347 340 336 349 350 3 359 356 354 351 348 354 8
234 12 196 117 2 166 146 149 151 149 154 162 185 207 188 178 169 164 161 160 151 145 151 157 158 135 74 30 13 24 22 8 338 3 346 359 3 359 355 350 356 352 347 3
210 8 159 321 21 109 158 165 165 158 163 173 177 187 185 178 168 171 167 164 157 153 168 171 165 123 8 356 354 14 22 20 40 2 356 357 356 1 8 2 358 359 358 0
194 179 153 215 185 202 201 174 169 163 168 183 182 168 175 178 168 171 170 169 165 166 167 168 167 195 280 320 309 306 3 19 15 345 349 356 349 355 355 353 4 13 12 360